[[{"header":{"parameterUnit":"m.s-1","parameterCategory":1,"la1":30.2991,"la2":30.254,"lo1":-89.0895,"lo2":-89.0444,"dy":0.0017,"dx":0.0017,"nx":28,"ny":28,"refTime":"2023-11-10T03:00:00:Z","depth":0,"parameterNumber":2,"parameterNumberName":"U-component_of_WINDS"},"data":[0,0,0,0,0,0,0,0,0,0,0,0,0,0,0,0,0,0,0,0,0,0,0,0,0,0,0,0,0,0,0,0,0,0,0,0,0,0,0,0,0,0,0,0,0,0,0,0,0,0,0,0,0,0,0,0,0,0,-0.38,-0.38,0,-0.3786,-0.3786,-0.3786,-0.376,-0.376,-0.3759,-0.3759,-0.3747,-0.3747,-0.3747,0,0,0,0,0,0,0,0,0,0,0,0,0,-0.3809,-0.3809,-0.38,-0.38,-0.38,-0.3786,-0.3786,-0.3786,-0.3761,-0.376,-0.3759,-0.3759,-0.3747,-0.3747,-0.3747,0,0,0,0,0,0,0,0,0,0,0,0,0,-0.3801,-0.3809,-0.38,-0.3786,-0.3784,-0.3786,-0.3786,-0.3786,-0.3761,-0.376,-0.3759,-0.3758,-0.3747,-0.3747,-0.3747,-0.3763,0,0,-0.3748,-0.3748,0,0,0,0,0,0,0,0,-0.3802,-0.3801,-0.3788,-0.3787,-0.3785,-0.3774,-0.3785,-0.3778,-0.3761,-0.377,-0.3759,-0.3758,-0.3757,-0.3756,-0.3755,-0.3763,-0.3762,-0.3748,-0.3748,-0.3748,-0.3748,0,0,0,0,0,0,0,-0.3802,-0.3801,-0.3795,-0.3788,-0.3786,-0.3781,-0.3779,-0.3783,-0.3768,-0.3769,-0.3767,-0.3765,-0.3756,-0.3755,-0.3755,-0.3762,-0.3748,-0.3748,-0.3748,-0.3748,-0.3785,-0.3785,0,0,0,0,0,0,-0.3804,-0.3802,-0.3795,-0.3794,-0.3791,-0.3781,-0.3779,-0.3778,-0.3767,-0.3765,-0.3766,-0.3764,-0.3755,-0.3755,-0.3754,-0.3774,-0.3748,-0.3748,-0.3748,-0.3784,-0.3785,-0.3786,0,0,0,0,0,0,-0.3805,-0.3804,-0.3796,-0.3798,-0.3796,-0.3782,-0.3781,-0.3779,-0.3778,-0.3765,-0.3763,-0.3768,-0.3754,-0.3754,-0.3762,-0.3773,-0.3748,-0.3749,-0.3783,-0.3784,-0.3785,-0.3812,0,0,0,0,0,0,-0.3805,-0.3804,-0.3809,-0.3798,-0.3796,-0.3802,-0.3782,-0.3779,-0.3778,-0.3775,-0.3766,-0.3764,-0.3754,-0.3761,-0.3762,-0.3773,-0.3749,-0.3782,-0.3783,-0.3785,-0.381,-0.3814,-0.3818,0,0,0,0,0,-0.3805,-0.3817,-0.3809,-0.3809,-0.3802,-0.3803,-0.3802,-0.3789,-0.3779,-0.3784,-0.3777,-0.3765,-0.3772,-0.3762,-0.3763,-0.3774,-0.3781,-0.3783,-0.3785,-0.3809,-0.3813,-0.3818,0,0,0,0,0,0,-0.383,-0.3815,-0.3807,-0.3815,-0.381,-0.3798,-0.3805,-0.3794,-0.3793,-0.3791,-0.3776,-0.3774,-0.3784,-0.378,-0.377,-0.379,-0.3775,-0.3777,-0.3793,-0.3797,-0.3801,-0.3802,-0.3749,0,0,0,0,0,-0.3837,-0.3838,-0.3825,-0.3834,-0.3832,-0.3819,-0.3819,-0.381,-0.3805,-0.3803,-0.3796,-0.3792,-0.3794,-0.3795,-0.3796,-0.3809,-0.3808,-0.3818,-0.3821,-0.3824,-0.3827,-0.3836,-0.384,-0.3792,-0.3792,-0.3792,0,0,-0.385,-0.3842,-0.3844,-0.3839,-0.3834,-0.3837,-0.3817,-0.3821,-0.3824,-0.3803,-0.381,-0.3805,-0.3801,-0.3812,-0.3817,-0.3809,-0.384,-0.3827,-0.3829,-0.383,-0.3838,-0.3843,-0.3847,-0.3793,-0.3793,-0.3793,0,0,-0.3877,-0.387,-0.3877,-0.3873,-0.3866,-0.3858,-0.386,-0.385,-0.3846,-0.3853,-0.3838,-0.3842,-0.3844,-0.3842,-0.3841,-0.3869,-0.3859,-0.387,-0.3889,-0.3899,-0.3903,-0.3906,-0.3918,-0.3922,-0.3872,-0.3872,-0.3872,0,-0.3894,-0.3897,-0.3883,-0.3887,-0.3887,-0.3868,-0.3877,-0.3874,-0.3868,-0.3869,-0.3859,-0.3864,-0.3859,-0.3871,-0.3878,-0.3877,-0.388,-0.3871,-0.3903,-0.3906,-0.3909,-0.392,-0.3924,-0.3873,-0.3873,-0.3873,-0.3873,0,-0.392,-0.3923,-0.393,-0.3924,-0.3924,-0.3931,-0.3919,-0.3921,-0.3912,-0.3905,-0.3914,-0.3908,-0.3908,-0.391,-0.3901,-0.3921,-0.3917,-0.3905,-0.389,-0.3915,-0.3926,-0.393,-0.3876,-0.3875,-0.3875,-0.3874,0,0,-0.3961,-0.3949,-0.3952,-0.395,-0.3942,-0.3944,-0.3951,-0.3951,-0.3954,-0.3951,-0.3958,-0.3961,-0.3951,-0.3951,-0.3942,-0.395,-0.3975,-0.3938,-0.3938,-0.3946,-0.3999,-0.4008,-0.4013,-0.3967,-0.3968,-0.3969,-0.4,0,-0.3987,-0.3996,-0.3985,-0.3998,-0.4001,-0.3985,-0.3991,-0.3988,-0.3982,-0.3985,-0.3979,-0.3983,-0.3969,-0.3969,-0.3976,-0.397,-0.3985,-0.3968,-0.3975,-0.3976,-0.3978,-0.4018,-0.4027,-0.4057,-0.4004,-0.4004,-0.4005,0,-0.4017,-0.4016,-0.403,-0.4023,-0.4024,-0.4029,-0.4029,-0.4032,-0.4029,-0.4024,-0.4025,-0.4014,-0.4022,-0.4007,-0.4019,-0.4007,-0.401,-0.4008,-0.4009,-0.401,-0.3992,-0.4022,-0.4066,-0.4071,-0.401,-0.401,-0.401,0,-0.4048,-0.4049,-0.4058,-0.4057,-0.4049,-0.4054,-0.4051,-0.4047,-0.4048,-0.4049,-0.405,-0.4051,-0.4053,-0.4055,-0.4046,-0.4035,-0.406,-0.4043,-0.4058,-0.4059,-0.4065,-0.4065,-0.4112,-0.4065,-0.4065,-0.4064,-0.4064,0,-0.4078,-0.4087,-0.4072,-0.4078,-0.4089,-0.4075,-0.4087,-0.4082,-0.408,-0.4085,-0.4071,-0.4077,-0.4065,-0.407,-0.4063,-0.4076,-0.4076,-0.4074,-0.4072,-0.4076,-0.4076,-0.4078,-0.4076,-0.4066,-0.4065,-0.4065,-0.4065,0,-0.4114,-0.4104,-0.4113,-0.4105,-0.4103,-0.4111,-0.4105,-0.4111,-0.4105,-0.4112,-0.4114,-0.4104,-0.411,-0.4101,-0.4106,-0.4102,-0.4119,-0.4114,-0.412,-0.4119,-0.4135,-0.4135,-0.4186,-0.4193,-0.414,-0.4141,-0.4141,0,-0.4134,-0.4141,-0.4134,-0.4137,-0.4135,-0.4139,-0.414,-0.4128,-0.4131,-0.4129,-0.4136,-0.414,-0.4143,-0.4153,-0.4148,-0.4152,-0.4148,-0.4165,-0.4148,-0.4152,-0.415,-0.415,-0.4152,-0.4169,-0.417,-0.417,-0.4171,0,-0.4173,-0.4168,-0.417,-0.4171,-0.4173,-0.4174,-0.4173,-0.4176,-0.4164,-0.4168,-0.4173,-0.4176,-0.4181,-0.4186,-0.4189,-0.4188,-0.4178,-0.4176,-0.418,-0.4184,-0.4189,-0.4188,-0.4131,-0.4175,-0.4175,-0.4174,-0.4174,-0.4174,-0.4202,-0.4209,-0.4205,-0.4209,-0.4207,-0.4208,-0.4213,-0.4208,-0.4212,-0.4215,-0.4208,-0.4216,-0.4215,-0.4218,-0.4218,-0.4225,-0.4218,-0.4223,-0.4225,-0.4226,-0.423,-0.4187,-0.4225,-0.4225,-0.4225,-0.4225,-0.4225,0,-0.4241,-0.4238,-0.4242,-0.4242,-0.4245,-0.4235,-0.4234,-0.4238,-0.4245,-0.4245,-0.4248,-0.4256,-0.4261,-0.4257,-0.4262,-0.4269,-0.4265,-0.4271,-0.4271,-0.4271,-0.4235,-0.4232,-0.4274,-0.4274,-0.4274,-0.4274,-0.4274,-0.4274,-0.4262,-0.4272,-0.4267,-0.4278,-0.4275,-0.4282,-0.4283,-0.4285,-0.4284,-0.4293,-0.4298,-0.4294,-0.4293,-0.4299,-0.4304,-0.4303,-0.4306,-0.4314,-0.4312,-0.4278,-0.4274,-0.4269,-0.4266,-0.4315,-0.4315,-0.4348,-0.4348,-0.4348]},{"header":{"parameterUnit":"m.s-1","parameterCategory":1,"la1":30.2991,"la2":30.254,"lo1":-89.0895,"lo2":-89.0444,"dy":0.0017,"dx":0.0017,"nx":28,"ny":28,"refTime":"2023-11-10T03:00:00:Z","depth":0,"parameterNumber":3,"parameterNumberName":"V-component_of_WINDS"},"data":[0,0,0,0,0,0,0,0,0,0,0,0,0,0,0,0,0,0,0,0,0,0,0,0,0,0,0,0,0,0,0,0,0,0,0,0,0,0,0,0,0,0,0,0,0,0,0,0,0,0,0,0,0,0,0,0,0,0,-1.7212,-1.7213,0,-1.7252,-1.7253,-1.7253,-1.7207,-1.7205,-1.7204,-1.7202,-1.7242,-1.7244,-1.7247,0,0,0,0,0,0,0,0,0,0,0,0,0,-1.7093,-1.7095,-1.7212,-1.7213,-1.7213,-1.7252,-1.7253,-1.7253,-1.7207,-1.7205,-1.7203,-1.7201,-1.7241,-1.7244,-1.7247,0,0,0,0,0,0,0,0,0,0,0,0,0,-1.714,-1.7096,-1.7212,-1.7195,-1.7194,-1.7252,-1.7253,-1.7254,-1.7208,-1.7205,-1.7203,-1.72,-1.724,-1.7244,-1.7248,-1.7324,0,0,-1.726,-1.7262,0,0,0,0,0,0,0,0,-1.7137,-1.7144,-1.7197,-1.7196,-1.7195,-1.7222,-1.7225,-1.7277,-1.7209,-1.7203,-1.7202,-1.7199,-1.7237,-1.7241,-1.7254,-1.7326,-1.7328,-1.726,-1.7263,-1.7264,-1.7265,0,0,0,0,0,0,0,-1.7134,-1.7142,-1.7228,-1.7198,-1.7197,-1.7184,-1.7188,-1.7235,-1.7234,-1.7203,-1.72,-1.7205,-1.7236,-1.7251,-1.7255,-1.7328,-1.726,-1.7264,-1.7266,-1.7268,-1.7464,-1.7466,0,0,0,0,0,0,-1.7133,-1.714,-1.7227,-1.7229,-1.7159,-1.7189,-1.7193,-1.7216,-1.7233,-1.7233,-1.7207,-1.7203,-1.7245,-1.725,-1.7256,-1.7347,-1.7264,-1.7268,-1.727,-1.7461,-1.7464,-1.7467,0,0,0,0,0,0,-1.7131,-1.7141,-1.7225,-1.7184,-1.7193,-1.7193,-1.722,-1.7218,-1.7233,-1.7237,-1.7236,-1.7223,-1.7243,-1.7251,-1.7307,-1.7348,-1.727,-1.7273,-1.7457,-1.7462,-1.7466,-1.753,0,0,0,0,0,0,-1.7127,-1.7141,-1.7171,-1.7185,-1.7196,-1.7277,-1.7222,-1.7221,-1.724,-1.7235,-1.7251,-1.7251,-1.7242,-1.7302,-1.7311,-1.7352,-1.7277,-1.7454,-1.7459,-1.7464,-1.7524,-1.7535,-1.7545,0,0,0,0,0,-1.7123,-1.7187,-1.7173,-1.7183,-1.7234,-1.7279,-1.7286,-1.7274,-1.7243,-1.7273,-1.7275,-1.725,-1.7341,-1.7308,-1.7319,-1.7361,-1.7451,-1.7458,-1.7464,-1.7519,-1.7533,-1.7545,0,0,0,0,0,0,-1.7178,-1.7189,-1.7173,-1.7243,-1.7261,-1.7272,-1.7309,-1.729,-1.7316,-1.731,-1.7294,-1.7298,-1.7359,-1.7365,-1.7328,-1.7435,-1.7391,-1.74,-1.7429,-1.7443,-1.7453,-1.7451,-1.728,0,0,0,0,0,-1.7198,-1.7235,-1.7242,-1.7303,-1.7313,-1.7309,-1.7329,-1.7319,-1.7336,-1.7343,-1.7349,-1.7367,-1.7399,-1.7421,-1.7451,-1.7523,-1.7526,-1.7557,-1.7568,-1.7577,-1.7585,-1.7624,-1.7638,-1.7488,-1.7488,-1.7488,0,0,-1.724,-1.725,-1.7275,-1.7314,-1.7327,-1.7365,-1.7316,-1.7359,-1.7387,-1.7349,-1.7404,-1.7409,-1.7427,-1.7492,-1.7521,-1.7499,-1.7627,-1.7585,-1.7592,-1.7596,-1.7632,-1.7646,-1.7659,-1.7492,-1.7491,-1.7491,0,0,-1.7337,-1.7348,-1.7401,-1.7414,-1.7433,-1.743,-1.7442,-1.7456,-1.7458,-1.7512,-1.7485,-1.7517,-1.7573,-1.7587,-1.7602,-1.7701,-1.7679,-1.7711,-1.7768,-1.7805,-1.7817,-1.7827,-1.7863,-1.7877,-1.7719,-1.7719,-1.7719,0,-1.7387,-1.7444,-1.743,-1.7474,-1.7492,-1.7459,-1.7512,-1.7525,-1.7553,-1.7566,-1.754,-1.761,-1.7619,-1.7687,-1.7711,-1.7724,-1.7737,-1.771,-1.7817,-1.7827,-1.7836,-1.7871,-1.7884,-1.7723,-1.7722,-1.7722,-1.7721,0,-1.7505,-1.7545,-1.7584,-1.7612,-1.7634,-1.7682,-1.7674,-1.7698,-1.7684,-1.7684,-1.7739,-1.7749,-1.778,-1.7795,-1.7782,-1.7861,-1.7846,-1.7819,-1.7775,-1.7855,-1.7887,-1.79,-1.7728,-1.7727,-1.7725,-1.7725,0,0,-1.764,-1.7658,-1.7673,-1.7685,-1.7703,-1.7733,-1.7778,-1.7809,-1.783,-1.7849,-1.7887,-1.7934,-1.7908,-1.7925,-1.7913,-1.7946,-1.8024,-1.7914,-1.7914,-1.7935,-1.8111,-1.8133,-1.8148,-1.8009,-1.8011,-1.8013,-1.811,0,-1.7738,-1.7818,-1.7805,-1.7883,-1.7919,-1.7887,-1.7927,-1.7941,-1.7941,-1.7971,-1.7969,-1.8004,-1.7967,-1.7977,-1.8007,-1.8008,-1.806,-1.8001,-1.8044,-1.8046,-1.8043,-1.8165,-1.8189,-1.828,-1.8122,-1.8124,-1.8126,0,-1.7863,-1.7888,-1.7969,-1.798,-1.7995,-1.8031,-1.8057,-1.8086,-1.8101,-1.8098,-1.8116,-1.8097,-1.8142,-1.8095,-1.8156,-1.8116,-1.8132,-1.8135,-1.8138,-1.8143,-1.8092,-1.8175,-1.8309,-1.8323,-1.8145,-1.8144,-1.8142,0,-1.7955,-1.8008,-1.8063,-1.8074,-1.8088,-1.8114,-1.8121,-1.8133,-1.8152,-1.8174,-1.8186,-1.8213,-1.8229,-1.825,-1.8239,-1.8206,-1.8301,-1.8254,-1.83,-1.8301,-1.8324,-1.8323,-1.8464,-1.8332,-1.8332,-1.8331,-1.8331,0,-1.8067,-1.8118,-1.8104,-1.8139,-1.8194,-1.8178,-1.8233,-1.8236,-1.8247,-1.828,-1.8253,-1.8285,-1.8268,-1.8298,-1.8289,-1.8341,-1.8347,-1.8346,-1.8344,-1.835,-1.8351,-1.8362,-1.8356,-1.8335,-1.8334,-1.8333,-1.8333,0,-1.818,-1.8173,-1.8231,-1.8239,-1.8242,-1.8283,-1.8289,-1.832,-1.8317,-1.8359,-1.8368,-1.8363,-1.8397,-1.8387,-1.8424,-1.8418,-1.8483,-1.8472,-1.8479,-1.8477,-1.8525,-1.8521,-1.8679,-1.8699,-1.8553,-1.8554,-1.8555,0,-1.8253,-1.8292,-1.8303,-1.8324,-1.8333,-1.8366,-1.8385,-1.8369,-1.839,-1.8409,-1.8438,-1.8469,-1.8494,-1.8549,-1.8548,-1.8576,-1.8565,-1.8619,-1.857,-1.8574,-1.8568,-1.8566,-1.857,-1.863,-1.8631,-1.8633,-1.8634,0,-1.8384,-1.8378,-1.8406,-1.8434,-1.8457,-1.8477,-1.8495,-1.8513,-1.8498,-1.8522,-1.8557,-1.8576,-1.8612,-1.8644,-1.8669,-1.8674,-1.8652,-1.8649,-1.8661,-1.8669,-1.8672,-1.8672,-1.8508,-1.8646,-1.8645,-1.8644,-1.8643,-1.8643,-1.848,-1.8513,-1.8526,-1.8558,-1.8569,-1.8586,-1.8616,-1.8616,-1.8644,-1.8674,-1.8662,-1.8701,-1.8713,-1.8744,-1.8753,-1.8783,-1.8763,-1.878,-1.8785,-1.8791,-1.8797,-1.8666,-1.8787,-1.8787,-1.8786,-1.8786,-1.8786,0,-1.861,-1.8617,-1.8646,-1.8672,-1.8697,-1.8672,-1.869,-1.8713,-1.8748,-1.8762,-1.8786,-1.8825,-1.8855,-1.8855,-1.8882,-1.8906,-1.8897,-1.8914,-1.8914,-1.8915,-1.8813,-1.88,-1.8922,-1.8922,-1.8922,-1.8922,-1.8922,-1.8922,-1.8681,-1.8735,-1.873,-1.8789,-1.8794,-1.8834,-1.8846,-1.8861,-1.8871,-1.8916,-1.8941,-1.8941,-1.8948,-1.8976,-1.9002,-1.9001,-1.9013,-1.9035,-1.9031,-1.8936,-1.8922,-1.891,-1.8898,-1.9037,-1.9037,-1.913,-1.9131,-1.9132]}]]